Location: Medlow Airstrip Trail, Medlow Bath NSW 2780, Australia
(33.6682°S, 150.3233°E)
Time: 00:35:14
(UTC+10:00)

Transit 2A - All Passes

Search period start: 18 September 2019 00:00
Search period end: 28 September 2019 00:00
Orbit: 598 x 960 km, 66.7° (Epoch: 16 September)

Date Brightness Start Highest point End Pass type
(mag) Time Alt. Az. Time Alt. Az. Time Alt. Az.
18 Sep - 00:56:11 10° SW 01:02:19 58° WNW 01:08:32 10° N night (unlit)
18 Sep - 13:50:19 10° NNE 13:54:15 28° ENE 13:58:33 10° SE daylight
18 Sep - 15:33:20 10° WNW 15:37:21 27° SW 15:41:45 10° S daylight
18 Sep - 22:40:26 10° S 22:44:20 17° SE 22:48:18 10° E visible
19 Sep - 00:21:57 10° SSW 00:28:15 83° WNW 00:34:37 10° NNE night (unlit)
19 Sep - 02:09:48 10° W 02:10:38 10° W 02:11:28 10° WNW night (unlit)
19 Sep - 13:17:16 10° NNE 13:20:22 18° ENE 13:23:41 10° ESE daylight
19 Sep - 14:58:39 10° NW 15:03:04 40° WSW 15:07:59 10° SSE daylight
19 Sep - 22:07:36 10° SSE 22:09:52 12° SE 22:12:10 10° ESE visible
19 Sep - 23:47:52 10° SSW 23:54:07 70° ESE 00:00:29 10° NNE night (unlit)
20 Sep - 01:33:00 10° WSW 01:36:47 17° WNW 01:40:34 10° NW night (unlit)
20 Sep - 12:45:32 10° ENE 12:46:33 11° E 12:47:35 10° E daylight
20 Sep - 14:24:15 10° NW 14:28:52 63° WSW 14:34:02 10° SSE daylight
20 Sep - 23:13:53 10° SSW 23:19:57 49° ESE 23:26:06 10° NE visible
21 Sep - 00:57:54 10° SW 01:02:53 25° WNW 01:07:52 10° NNW night (unlit)
21 Sep - 13:50:06 10° NNW 13:54:45 83° ENE 13:59:58 10° SSE daylight
21 Sep - 15:36:57 10° WSW 15:38:47 12° SW 15:40:41 10° SSW daylight
21 Sep - 22:40:01 10° S 22:45:42 35° ESE 22:51:27 10° ENE visible
22 Sep - 00:23:14 10° SW 00:28:55 36° WNW 00:34:39 10° N night (unlit)
22 Sep - 13:16:14 10° N 13:20:43 51° ENE 13:25:43 10° SE daylight
22 Sep - 15:01:06 10° W 15:04:19 17° SW 15:07:46 10° S daylight
22 Sep - 22:06:19 10° S 22:11:24 25° SE 22:16:33 10° ENE visible
22 Sep - 23:48:48 10° SW 23:54:55 53° WNW 00:01:04 10° N night (unlit)
23 Sep - 12:42:38 10° N 12:46:46 32° ENE 12:51:16 10° SE daylight
23 Sep - 14:25:58 10° WNW 14:29:57 25° SW 14:34:17 10° S daylight
23 Sep - 21:32:49 10° S 21:37:00 18° SE 21:41:15 10° E visible
23 Sep - 23:14:33 10° SSW 23:20:52 77° WNW 23:27:13 10° NNE visible
24 Sep - 12:09:28 10° NNE 12:12:52 20° ENE 12:16:30 10° ESE daylight
24 Sep - 13:51:14 10° NW 13:55:39 37° WSW 14:00:32 10° S daylight
24 Sep - 20:59:46 10° SSE 21:02:34 13° SE 21:05:22 10° ESE visible
24 Sep - 22:40:26 10° SSW 22:46:45 76° ESE 22:53:07 10° NNE visible
25 Sep - 00:25:55 10° WSW 00:29:20 15° WNW 00:32:45 10° NW night (unlit)
25 Sep - 11:37:09 10° NE 11:39:02 12° ENE 11:40:59 10° ESE daylight
25 Sep - 13:16:46 10° NW 13:21:25 57° WSW 13:26:38 10° SSE daylight
25 Sep - 22:06:26 10° SSW 22:12:35 53° ESE 22:18:47 10° NE visible
25 Sep - 23:50:39 10° SW 23:55:27 23° WNW 00:00:13 10° NNW night (unlit)
26 Sep - 12:42:35 10° NNW 12:47:17 89° W 12:52:35 10° SSE daylight
26 Sep - 14:29:57 10° WSW 14:31:25 11° SW 14:32:56 10° SSW daylight
26 Sep - 21:32:32 10° S 21:38:21 38° ESE 21:44:13 10° NE visible
26 Sep - 23:15:55 10° SW 23:21:30 33° WNW 23:27:05 10° N visible
27 Sep - 12:08:39 10° N 12:13:14 57° ENE 12:18:22 10° SE daylight
27 Sep - 13:53:50 10° W 13:56:57 16° SW 14:00:14 10° S daylight
27 Sep - 20:58:47 10° S 21:04:03 27° SE 21:09:21 10° ENE visible
27 Sep - 22:41:27 10° SW 22:47:31 49° WNW 22:53:34 10° N visible
